Regional Weather Roundup
Issued by NWS

Home | Current Version | Previous Version | Graphics & Text | Print | Product List | Glossary On
Versions: 1 2 3 4 5 6 7 8 9 10 11 12 13 14 15 16 17 18 19 20 21 22 23 24 25 26 27 28 29 30 31 32 33 34 35 36 37 38 39 40 41 42 43 44 45 46 47 48 49 50
000
ASUS44 KMEG 160510
RWRTN
TENNESSEE HOURLY STATE WEATHER ROUNDUP
NATIONAL WEATHER SERVICE MEMPHIS TN
1100 PM CST FRI DEC 15 2017

TNZ002-004-019-021-049-052-054-088>092-160600-
WEST TENNESSEE

CITY           SKY/WX    TMP DP  RH WIND       PRES   REMARKS
MEMPHIS INTL   CLEAR     37  27  67 S13G20    30.20S WCI  29
NWS MEMPHIS      N/A     37 N/A N/A MISG        N/A
JACKSON        CLEAR     35  27  72 SW10      30.20S WCI  27
DYERSBURG      CLEAR     38  27  64 S3        30.19R
SOMERVILLE     CLEAR     36  27  69 S8        30.19S WCI  29
COVINGTON      CLEAR     34  27  75 SW8       30.20R WCI  27
UNION CITY     CLEAR     34  27  75 S9        30.17R WCI  26
BOLIVAR        PTCLDY    32  27  80 S5        30.21R WCI  27
PARIS          CLEAR     34  27  75 SW8       30.17R WCI  27
HUNTINGDON     MOCLDY    36  27  69 S5        30.18R WCI  32
LEXINGTON      CLEAR     30  25  80 CALM      30.21R
SELMER         CLEAR     32  25  74 VRB6      30.21S WCI  26
SAVANNAH       MOCLDY    30  25  80 SE5       30.23R WCI  25
$$

TNZ008-025-027-028-033-062-065-066-160600-
NORTH MIDDLE TENNESSEE

CITY           SKY/WX    TMP DP  RH WIND       PRES   REMARKS
NASHVILLE      CLEAR     29  22  75 S6        30.22R WCI  23
PORTLAND       CLEAR     30  25  80 S9        30.18R WCI  22
CLARKSVILLE    CLEAR     33  22  63 S7        30.18R WCI  27
SMYRNA         CLEAR     27  22  81 SE6       30.23R WCI  20
COOKEVILLE     CLEAR     21  19  93 CALM      30.20S
GALLATIN       MOCLDY    30  23  74 CALM      30.23R
CROSSVILLE     CLOUDY    25  19  78 SW5       30.17F WCI  19
$$

TNZ061-075-076-078-094-096-097-160600-
SOUTH MIDDLE TENNESSEE

CITY           SKY/WX    TMP DP  RH WIND       PRES   REMARKS
FAYETTEVILLE   CLEAR     27  23  86 S5        30.22F WCI  21
TULLAHOMA      PTCLDY    23  21  93 CALM      30.21S
WINCHESTER     CLEAR     19  18  93 CALM      30.23F
MCMINNVILLE    CLEAR     25  21  86 CALM      30.21S
COLUMBIA       CLEAR     28  23  80 CALM      30.20S
SHELBYVILLE    CLEAR     25  21  86 E3        30.21F
$$

TNZ017-018-042-046-047-160600-
NORTHEAST TENNESSEE

CITY           SKY/WX    TMP DP  RH WIND       PRES   REMARKS
TRI CITIES     CLOUDY    30  24  78 SW8       30.19R WCI  22
ELIZABETHTON   CLOUDY    32  23  69 W5        30.19R WCI  27
$$

TNZ012-013-036-069-073-074-160600-
CENTRAL EAST TENNESSEE

CITY           SKY/WX    TMP DP  RH WIND       PRES   REMARKS
KNOXVILLE      PTCLDY    27  24  89 S3        30.23F
OAK RIDGE      CLEAR     29  22  75 CALM      30.24S
DOWNTOWN KNOXV PTCLDY    30  25  80 CALM      30.24S
GATLINBURG     CLOUDY    27  23  86 CALM      30.23S
MORRISTOWN     CLOUDY    30  23  74 NW5       30.20S WCI  25
JACKSBORO      CLOUDY    28  23  80 CALM      30.24S
$$

TNZ083-085-099-160600-
SOUTHEAST TENNESSEE

CITY           SKY/WX    TMP DP  RH WIND       PRES   REMARKS
CHATTANOOGA    CLOUDY    26  22  84 CALM      30.26R
DAYTON         CLEAR     23  23 100 CALM      30.24S
$$

SKY/WX REPORTED AS FAIR MEANS FEW OR NO CLOUDS BELOW
12 THOUSAND FEET.





USA.gov is the U.S. government's official web portal to all federal, state and local government web resources and services.